Location: Martley
(52.2333°N, 2.3667°W)
Time: 18:05:18
(UTC+00:00)

CZ-2C R/B - Pass Details

Date: 11 December 2019
Orbit: 668 x 784 km, 98.1° (Epoch: 27 January)

Event Time Altitude Azimuth Distance (km) Brightness Sun altitude
Rises 05:07:46 0° 12° (NNE) 3,050 5.7 -26.2°
Reaches altitude 10° 05:10:03 10° 9° (N) 2,121 4.8 -25.9°
Enters shadow 05:11:26 19° 5° (N) 1,579 4.1 -25.7°
